Skip Page Navigation
NASA JPL Caltech
NASA Logo - Jet Propulsion Laboratory + View the NASA Portal
+ Near-Earth Object (NEO) Program
Search JPL
JPL Home Earth Solar System Stars & Galaxies Technology
JPL Solar System Dynamics
BODIES ORBITS EPHEMERIDES TOOLS PHYSICAL DATA DISCOVERY FAQ SITE MAP
JPL Small-Body Database Browser
Search: [ help ]  
44016 Jimmypage (1997 WQ28)
Classification: Main-belt Asteroid          SPK-ID: 2044016
Ephemeris | Orbit Diagram | Orbital Elements | Physical Parameters | Discovery Circumstances ]

[ show orbit diagram ]
Orbital Elements at Epoch 2456400.5 (2013-Apr-18.0) TDB
Reference: MPO235022 (heliocentric ecliptic J2000)
 Element Value Uncertainty (1-sigma)   Units 
e 0.1562899 n/a  
a 2.6473648 n/a AU
q 2.2336084 n/a AU
i 11.28414 n/a deg
node 8.54786 n/a deg
peri 89.90278 n/a deg
M 170.05636 n/a deg
tp 2455657.2934860
(2011-Apr-05.79348600)
n/a JED
period 1573.3274841
4.31
n/a
n/a
d
yr
n 0.22881441 n/a deg/d
Q 3.0611212 n/a AU
  Orbit Determination Parameters
   # obs. used (total)      635  
   first obs. used      1954-??-??  
   last obs. used      2012-07-21  
   # oppositions      15  
   planetary ephem.      DE403  
   condition code      0  
   fit RMS      0.57  
   data source      MPC:mpn  
   producer      MPCLINUX  

Additional Information
 T_jup = 3.347 

Ephemeris | Orbit Diagram | Orbital Elements | Physical Parameters | Discovery Circumstances ]

Physical Parameter Table
Parameter Symbol Value Units Sigma Reference Notes
absolute magnitude H 13.7 mag n/a MPO235022  

44016 Jimmypage           Discovered 1997 Nov. 30 by M. Armstrong and C. Armstrong at Rolvenden.
James Patrick Page (b. 1944), composer, producer and master guitarist, is one of the legendary figures in music. His work as a session man, leader of the Yardbirds and the great Led Zeppelin, thrilled a generation of fans and contemporaries and continues to inspire young musicians.
NOTE: some special characters may not display properly (any characters within {} are an attempt to place the proper accent above a character)
Reference: 20030614/MPCPages.arcLast Updated: 2005-04-26
Ephemeris | Orbit Diagram | Orbital Elements | Physical Parameters | Discovery Circumstances ]
ABOUT SSD CREDITS/AWARDS PRIVACY/COPYRIGHT GLOSSARY LINKS
FirstGov 2013-May-24 01:24 UT
(server date/time)  
NASA Home Page
Site Manager:   Donald K. Yeomans
Webmaster  Alan B. Chamberlin